Wetterdaten: Woche 27.04.09 - 03.05.09 (KW18)
Datum Zeit Temp. Innen Temp. Aussen Feuchte Inne Feuchte Auss Luftdruck Regen ab 0,1 Wind
27.04.2009 00:00 21,4 C 13,1 C 52 % 80 % 1003,3 hPa 2,6 l/m 0,0 km/h (0 Bft)
27.04.2009 01:00 21,3 C 12,7 C 52 % 82 % 1003,3 hPa 0,0 l/m 0,0 km/h (0 Bft)
27.04.2009 02:00 21,2 C 12,5 C 52 % 82 % 1003,1 hPa 0,0 l/m 0,0 km/h (0 Bft)
27.04.2009 03:00 21,1 C 12,5 C 53 % 83 % 1002,3 hPa 0,0 l/m 0,0 km/h (0 Bft)
27.04.2009 04:00 21,0 C 12,1 C 53 % 84 % 1001,3 hPa 0,0 l/m 0,0 km/h (0 Bft)
27.04.2009 05:00 20,9 C 11,7 C 52 % 85 % 1001,3 hPa 0,0 l/m 0,1 km/h (0 Bft)
27.04.2009 06:00 20,8 C 11,5 C 52 % 85 % 1001,3 hPa 0,0 l/m 0,9 km/h (0 Bft)
27.04.2009 07:00 20,9 C 11,2 C 52 % 83 % 1001,9 hPa 0,5 l/m 4,0 km/h (1 Bft)
27.04.2009 08:00 20,8 C 10,5 C 51 % 83 % 1002,8 hPa 0,0 l/m 0,7 km/h (0 Bft)
27.04.2009 09:00 20,7 C 10,6 C 51 % 84 % 1003,3 hPa 0,0 l/m 0,4 km/h (0 Bft)
27.04.2009 10:00 20,5 C 11,6 C 52 % 82 % 1003,3 hPa 0,0 l/m 0,1 km/h (0 Bft)
27.04.2009 11:00 20,4 C 13,6 C 51 % 75 % 1003,3 hPa 0,0 l/m 2,2 km/h (1 Bft)
27.04.2009 12:00 20,4 C 14,5 C 51 % 65 % 1003,3 hPa 0,0 l/m 2,7 km/h (1 Bft)
27.04.2009 13:00 20,5 C 15,6 C 51 % 58 % 1003,1 hPa 0,0 l/m 5,5 km/h (1 Bft)
27.04.2009 14:00 20,5 C 16,2 C 50 % 52 % 1002,3 hPa 0,0 l/m 3,6 km/h (1 Bft)
27.04.2009 15:00 20,3 C 16,0 C 45 % 52 % 1002,4 hPa 0,0 l/m 2,2 km/h (1 Bft)
27.04.2009 16:00 20,7 C 16,6 C 49 % 51 % 1002,2 hPa 0,0 l/m 2,9 km/h (1 Bft)
27.04.2009 17:00 21,2 C 17,4 C 48 % 49 % 1002,2 hPa 0,0 l/m 4,4 km/h (1 Bft)
27.04.2009 18:00 21,0 C 16,4 C 48 % 48 % 1001,8 hPa 0,0 l/m 0,9 km/h (0 Bft)
27.04.2009 19:00 20,9 C 15,6 C 48 % 50 % 1001,3 hPa 0,0 l/m 0,8 km/h (0 Bft)
27.04.2009 20:00 20,9 C 14,8 C 48 % 52 % 1001,3 hPa 0,0 l/m 0,7 km/h (0 Bft)
27.04.2009 21:00 20,9 C 13,6 C 48 % 56 % 1001,9 hPa 0,0 l/m 0,0 km/h (0 Bft)
27.04.2009 22:00 21,0 C 12,9 C 47 % 59 % 1001,9 hPa 0,0 l/m 0,0 km/h (0 Bft)
27.04.2009 23:00 20,8 C 12,5 C 45 % 60 % 1001,3 hPa 0,0 l/m 0,0 km/h (0 Bft)
28.04.2009 00:00 20,6 C 12,3 C 45 % 61 % 1000,9 hPa 0,0 l/m 0,7 km/h (0 Bft)
28.04.2009 01:00 20,5 C 12,0 C 45 % 64 % 1000,3 hPa 0,0 l/m 0,1 km/h (0 Bft)
28.04.2009 02:00 20,4 C 11,2 C 46 % 68 % 1000,3 hPa 0,0 l/m 0,0 km/h (0 Bft)
28.04.2009 03:00 20,4 C 10,9 C 47 % 72 % 1000,3 hPa 0,0 l/m 0,0 km/h (0 Bft)
28.04.2009 04:00 20,4 C 10,9 C 48 % 76 % 1000,3 hPa 0,0 l/m 0,0 km/h (0 Bft)
28.04.2009 05:00 20,3 C 10,9 C 49 % 78 % 1000,3 hPa 0,0 l/m 0,0 km/h (0 Bft)
28.04.2009 06:00 20,3 C 10,8 C 49 % 79 % 1000,3 hPa 0,0 l/m 0,0 km/h (0 Bft)
28.04.2009 07:00 20,2 C 10,8 C 50 % 81 % 1000,3 hPa 0,0 l/m 0,1 km/h (0 Bft)
28.04.2009 08:00 20,1 C 10,9 C 50 % 82 % 1000,3 hPa 0,0 l/m 0,0 km/h (0 Bft)
28.04.2009 09:00 20,2 C 11,4 C 50 % 82 % 1000,3 hPa 0,0 l/m 0,0 km/h (0 Bft)
28.04.2009 10:00 20,2 C 12,0 C 51 % 82 % 1001,0 hPa 0,0 l/m 0,3 km/h (0 Bft)
28.04.2009 11:00 20,1 C 12,3 C 51 % 81 % 1001,3 hPa 0,0 l/m 0,2 km/h (0 Bft)
28.04.2009 12:00 20,1 C 11,4 C 51 % 80 % 1001,8 hPa 0,0 l/m 0,5 km/h (0 Bft)
28.04.2009 13:00 20,1 C 10,5 C 51 % 81 % 1002,3 hPa 0,0 l/m 1,0 km/h (0 Bft)
28.04.2009 14:00 20,0 C 10,0 C 51 % 82 % 1003,3 hPa 1,0 l/m 0,9 km/h (0 Bft)
28.04.2009 15:00 20,0 C 10,5 C 51 % 82 % 1003,3 hPa 0,0 l/m 0,5 km/h (0 Bft)
28.04.2009 16:00 19,9 C 11,2 C 50 % 79 % 1003,9 hPa 0,0 l/m 0,4 km/h (0 Bft)
28.04.2009 17:00 20,0 C 12,4 C 50 % 73 % 1004,3 hPa 0,0 l/m 1,1 km/h (1 Bft)
28.04.2009 18:00 20,1 C 13,3 C 49 % 68 % 1004,3 hPa 0,0 l/m 0,0 km/h (0 Bft)
28.04.2009 19:00 20,1 C 13,2 C 49 % 65 % 1004,3 hPa 0,0 l/m 0,1 km/h (0 Bft)
28.04.2009 20:00 20,1 C 12,5 C 48 % 65 % 1004,6 hPa 0,0 l/m 0,0 km/h (0 Bft)
28.04.2009 21:00 20,0 C 11,0 C 48 % 68 % 1005,3 hPa 0,0 l/m 0,0 km/h (0 Bft)
28.04.2009 22:00 20,0 C 9,2 C 48 % 72 % 1005,4 hPa 0,0 l/m 0,0 km/h (0 Bft)
28.04.2009 23:00 19,9 C 7,9 C 48 % 75 % 1005,9 hPa 0,0 l/m 0,0 km/h (0 Bft)
29.04.2009 00:00 19,9 C 7,1 C 49 % 78 % 1006,4 hPa 0,0 l/m 0,0 km/h (0 Bft)
29.04.2009 01:00 19,7 C 6,6 C 49 % 79 % 1006,4 hPa 0,0 l/m 0,0 km/h (0 Bft)
29.04.2009 02:00 19,6 C 6,4 C 49 % 81 % 1006,4 hPa 0,0 l/m 0,0 km/h (0 Bft)
29.04.2009 03:00 19,6 C 6,3 C 49 % 82 % 1006,4 hPa 0,0 l/m 0,0 km/h (0 Bft)
29.04.2009 04:00 19,4 C 6,4 C 49 % 83 % 1006,4 hPa 0,0 l/m 0,0 km/h (0 Bft)
29.04.2009 05:00 19,3 C 6,4 C 49 % 84 % 1006,4 hPa 0,0 l/m 0,0 km/h (0 Bft)
29.04.2009 06:00 19,2 C 6,3 C 49 % 84 % 1006,6 hPa 0,0 l/m 0,0 km/h (0 Bft)
29.04.2009 07:00 19,2 C 6,7 C 49 % 85 % 1007,4 hPa 0,0 l/m 0,0 km/h (0 Bft)
29.04.2009 08:00 19,0 C 7,7 C 49 % 86 % 1007,4 hPa 0,0 l/m 0,0 km/h (0 Bft)
29.04.2009 09:00 19,1 C 9,2 C 50 % 86 % 1007,8 hPa 0,0 l/m 0,0 km/h (0 Bft)
29.04.2009 10:00 19,1 C 11,1 C 50 % 84 % 1008,4 hPa 0,0 l/m 0,0 km/h (0 Bft)
29.04.2009 11:00 19,2 C 13,5 C 50 % 74 % 1008,3 hPa 0,0 l/m 0,0 km/h (0 Bft)
29.04.2009 12:00 19,3 C 15,0 C 50 % 65 % 1008,6 hPa 0,0 l/m 0,6 km/h (0 Bft)
29.04.2009 13:00 19,4 C 16,2 C 49 % 58 % 1009,3 hPa 0,0 l/m 0,9 km/h (0 Bft)
29.04.2009 14:00 19,5 C 16,9 C 49 % 55 % 1009,3 hPa 0,0 l/m 3,4 km/h (1 Bft)
29.04.2009 15:00 19,7 C 17,5 C 48 % 52 % 1009,3 hPa 0,0 l/m 5,2 km/h (1 Bft)
29.04.2009 16:00 19,8 C 16,7 C 48 % 52 % 1010,2 hPa 0,0 l/m 0,0 km/h (0 Bft)
29.04.2009 17:00 20,0 C 16,4 C 47 % 53 % 1010,3 hPa 0,0 l/m 0,6 km/h (0 Bft)
29.04.2009 18:00 20,1 C 16,1 C 47 % 53 % 1010,4 hPa 0,0 l/m 0,0 km/h (0 Bft)
29.04.2009 19:00 20,0 C 15,4 C 46 % 54 % 1011,3 hPa 0,0 l/m 0,0 km/h (0 Bft)
29.04.2009 20:00 20,1 C 14,1 C 46 % 58 % 1012,1 hPa 0,0 l/m 0,0 km/h (0 Bft)
29.04.2009 21:00 20,0 C 12,3 C 47 % 63 % 1012,9 hPa 0,0 l/m 0,0 km/h (0 Bft)
29.04.2009 22:00 20,0 C 10,4 C 47 % 68 % 1014,0 hPa 0,0 l/m 0,0 km/h (0 Bft)
29.04.2009 23:00 20,0 C 9,0 C 47 % 72 % 1014,4 hPa 0,0 l/m 0,0 km/h (0 Bft)
30.04.2009 00:00 19,9 C 8,6 C 48 % 74 % 1014,4 hPa 0,0 l/m 0,0 km/h (0 Bft)
30.04.2009 01:00 19,8 C 7,7 C 48 % 76 % 1015,3 hPa 0,0 l/m 0,0 km/h (0 Bft)
30.04.2009 02:00 19,6 C 6,9 C 48 % 78 % 1015,4 hPa 0,0 l/m 0,0 km/h (0 Bft)
30.04.2009 03:00 19,6 C 6,2 C 47 % 79 % 1015,5 hPa 0,0 l/m 0,0 km/h (0 Bft)
30.04.2009 04:00 19,4 C 5,7 C 47 % 80 % 1015,5 hPa 0,0 l/m 0,0 km/h (0 Bft)
30.04.2009 05:00 19,3 C 5,9 C 47 % 81 % 1016,5 hPa 0,0 l/m 0,0 km/h (0 Bft)
30.04.2009 06:00 19,2 C 6,3 C 48 % 82 % 1016,5 hPa 0,0 l/m 0,0 km/h (0 Bft)
30.04.2009 07:00 19,2 C 6,7 C 48 % 83 % 1016,5 hPa 0,0 l/m 0,0 km/h (0 Bft)
30.04.2009 08:00 19,2 C 7,2 C 48 % 83 % 1016,5 hPa 0,0 l/m 0,0 km/h (0 Bft)
30.04.2009 09:00 19,2 C 8,9 C 49 % 84 % 1017,2 hPa 0,0 l/m 0,0 km/h (0 Bft)
30.04.2009 10:00 19,2 C 11,7 C 49 % 82 % 1017,4 hPa 0,0 l/m 0,0 km/h (0 Bft)
30.04.2009 11:00 19,2 C 14,7 C 49 % 70 % 1017,3 hPa 0,0 l/m 3,1 km/h (1 Bft)
30.04.2009 12:00 19,4 C 16,6 C 49 % 57 % 1017,3 hPa 0,0 l/m 1,7 km/h (1 Bft)
30.04.2009 13:00 19,4 C 17,6 C 48 % 50 % 1017,3 hPa 0,0 l/m 0,5 km/h (0 Bft)
30.04.2009 14:00 19,6 C 18,3 C 47 % 47 % 1017,3 hPa 0,0 l/m 2,7 km/h (1 Bft)
30.04.2009 15:00 19,8 C 20,1 C 46 % 43 % 1017,3 hPa 0,0 l/m 0,1 km/h (0 Bft)
30.04.2009 16:00 20,1 C 19,8 C 46 % 43 % 1017,3 hPa 0,0 l/m 7,3 km/h (2 Bft)
30.04.2009 17:00 20,3 C 19,1 C 45 % 46 % 1017,3 hPa 0,0 l/m 2,4 km/h (1 Bft)
30.04.2009 18:00 20,4 C 18,3 C 45 % 48 % 1018,2 hPa 0,0 l/m 0,0 km/h (0 Bft)
30.04.2009 19:00 20,4 C 17,5 C 45 % 50 % 1018,2 hPa 0,0 l/m 0,1 km/h (0 Bft)
30.04.2009 20:00 20,5 C 16,4 C 46 % 52 % 1018,3 hPa 0,0 l/m 0,0 km/h (0 Bft)
30.04.2009 21:00 20,6 C 14,8 C 46 % 58 % 1018,8 hPa 0,0 l/m 0,0 km/h (0 Bft)
30.04.2009 22:00 20,6 C 13,2 C 46 % 64 % 1019,4 hPa 0,0 l/m 0,0 km/h (0 Bft)
30.04.2009 23:00 20,5 C 11,9 C 47 % 68 % 1019,4 hPa 0,0 l/m 0,0 km/h (0 Bft)
01.05.2009 00:00 20,4 C 11,0 C 48 % 71 % 1019,6 hPa 0,0 l/m 0,0 km/h (0 Bft)
01.05.2009 01:00 20,4 C 10,4 C 48 % 74 % 1020,4 hPa 0,0 l/m 0,0 km/h (0 Bft)
01.05.2009 02:00 20,2 C 10,1 C 49 % 76 % 1020,4 hPa 0,0 l/m 0,0 km/h (0 Bft)
01.05.2009 03:00 20,1 C 9,6 C 49 % 78 % 1020,4 hPa 0,0 l/m 0,0 km/h (0 Bft)
01.05.2009 04:00 20,0 C 9,5 C 49 % 80 % 1020,4 hPa 0,0 l/m 0,0 km/h (0 Bft)
01.05.2009 05:00 20,0 C 9,2 C 50 % 81 % 1020,4 hPa 0,0 l/m 0,0 km/h (0 Bft)
01.05.2009 06:00 20,1 C 8,7 C 49 % 82 % 1021,1 hPa 0,0 l/m 0,0 km/h (0 Bft)
01.05.2009 07:00 20,2 C 9,3 C 50 % 83 % 1021,4 hPa 0,0 l/m 0,0 km/h (0 Bft)
01.05.2009 08:00 20,4 C 10,3 C 50 % 84 % 1022,3 hPa 0,0 l/m 0,0 km/h (0 Bft)
01.05.2009 09:00 20,5 C 12,4 C 51 % 85 % 1022,4 hPa 0,0 l/m 0,0 km/h (0 Bft)
01.05.2009 10:00 20,6 C 14,9 C 52 % 80 % 1022,4 hPa 0,0 l/m 1,3 km/h (1 Bft)
01.05.2009 11:00 20,7 C 17,6 C 54 % 71 % 1022,3 hPa 0,0 l/m 7,7 km/h (2 Bft)
01.05.2009 12:00 20,8 C 20,1 C 52 % 62 % 1022,3 hPa 0,0 l/m 2,9 km/h (1 Bft)
01.05.2009 13:00 20,8 C 21,8 C 52 % 55 % 1022,3 hPa 0,0 l/m 1,1 km/h (0 Bft)
01.05.2009 14:00 21,0 C 23,3 C 51 % 50 % 1022,2 hPa 0,0 l/m 0,3 km/h (0 Bft)
01.05.2009 15:00 21,2 C 24,0 C 51 % 45 % 1021,8 hPa 0,0 l/m 0,0 km/h (0 Bft)
01.05.2009 16:00 21,6 C 24,3 C 50 % 44 % 1021,3 hPa 0,0 l/m 0,0 km/h (0 Bft)
01.05.2009 17:00 21,8 C 23,3 C 49 % 45 % 1021,2 hPa 0,0 l/m 0,0 km/h (0 Bft)
01.05.2009 18:00 21,8 C 21,7 C 49 % 47 % 1021,3 hPa 0,0 l/m 0,0 km/h (0 Bft)
01.05.2009 19:00 21,7 C 20,6 C 49 % 50 % 1021,3 hPa 0,0 l/m 0,0 km/h (0 Bft)
01.05.2009 20:00 21,7 C 19,1 C 50 % 55 % 1022,0 hPa 0,0 l/m 0,0 km/h (0 Bft)
01.05.2009 21:00 21,8 C 17,4 C 51 % 58 % 1022,7 hPa 0,0 l/m 0,0 km/h (0 Bft)
01.05.2009 22:00 21,8 C 16,4 C 52 % 63 % 1023,3 hPa 0,0 l/m 0,0 km/h (0 Bft)
01.05.2009 23:00 21,8 C 15,1 C 52 % 67 % 1023,8 hPa 0,0 l/m 0,0 km/h (0 Bft)
02.05.2009 00:00 21,6 C 14,0 C 53 % 71 % 1024,4 hPa 0,0 l/m 0,0 km/h (0 Bft)
02.05.2009 01:00 21,6 C 13,5 C 53 % 73 % 1024,4 hPa 0,0 l/m 0,0 km/h (0 Bft)
02.05.2009 02:00 21,5 C 12,5 C 53 % 74 % 1024,7 hPa 0,0 l/m 0,0 km/h (0 Bft)
02.05.2009 03:00 21,3 C 11,6 C 53 % 76 % 1025,4 hPa 0,0 l/m 0,0 km/h (0 Bft)
02.05.2009 04:00 21,2 C 10,8 C 53 % 78 % 1025,8 hPa 0,0 l/m 0,0 km/h (0 Bft)
02.05.2009 05:00 21,1 C 10,0 C 52 % 78 % 1026,3 hPa 0,0 l/m 0,0 km/h (0 Bft)
02.05.2009 06:00 20,9 C 9,2 C 51 % 79 % 1026,5 hPa 0,0 l/m 0,0 km/h (0 Bft)
02.05.2009 07:00 20,8 C 9,2 C 51 % 81 % 1027,0 hPa 0,0 l/m 0,0 km/h (0 Bft)
02.05.2009 08:00 20,6 C 10,1 C 51 % 82 % 1027,5 hPa 0,0 l/m 0,0 km/h (0 Bft)
02.05.2009 09:00 20,6 C 11,6 C 51 % 78 % 1027,4 hPa 0,0 l/m 0,0 km/h (0 Bft)
02.05.2009 10:00 20,6 C 13,7 C 51 % 72 % 1027,7 hPa 0,0 l/m 1,0 km/h (0 Bft)
02.05.2009 11:00 20,9 C 16,4 C 51 % 64 % 1027,4 hPa 0,0 l/m 3,3 km/h (1 Bft)
02.05.2009 12:00 21,2 C 19,0 C 50 % 56 % 1027,3 hPa 0,0 l/m 14,0 km/h (3 Bft)
02.05.2009 13:00 21,2 C 20,6 C 50 % 52 % 1027,1 hPa 0,0 l/m 2,0 km/h (1 Bft)
02.05.2009 14:00 21,5 C 21,8 C 50 % 47 % 1026,4 hPa 0,0 l/m 0,9 km/h (0 Bft)
02.05.2009 15:00 22,0 C 22,6 C 49 % 43 % 1026,3 hPa 0,0 l/m 0,3 km/h (0 Bft)
02.05.2009 16:00 21,8 C 22,1 C 48 % 45 % 1026,3 hPa 0,0 l/m 3,1 km/h (1 Bft)
02.05.2009 17:00 21,8 C 20,8 C 49 % 50 % 1026,3 hPa 0,0 l/m 1,5 km/h (1 Bft)
02.05.2009 18:00 21,8 C 19,6 C 49 % 54 % 1026,3 hPa 0,0 l/m 1,4 km/h (1 Bft)
02.05.2009 19:00 21,8 C 18,4 C 49 % 57 % 1026,3 hPa 0,0 l/m 0,2 km/h (0 Bft)
02.05.2009 20:00 21,9 C 17,3 C 49 % 61 % 1026,3 hPa 0,0 l/m 0,0 km/h (0 Bft)
02.05.2009 21:00 21,9 C 15,8 C 50 % 64 % 1026,4 hPa 0,0 l/m 0,0 km/h (0 Bft)
02.05.2009 22:00 22,1 C 14,8 C 50 % 66 % 1026,5 hPa 0,0 l/m 0,0 km/h (0 Bft)
02.05.2009 23:00 22,0 C 13,6 C 50 % 69 % 1026,4 hPa 0,0 l/m 0,0 km/h (0 Bft)
03.05.2009 00:00 21,8 C 12,5 C 51 % 72 % 1026,4 hPa 0,0 l/m 0,0 km/h (0 Bft)
03.05.2009 01:00 21,6 C 12,0 C 51 % 74 % 1026,4 hPa 0,0 l/m 0,0 km/h (0 Bft)
03.05.2009 02:00 21,5 C 11,3 C 51 % 75 % 1025,8 hPa 0,0 l/m 0,0 km/h (0 Bft)
03.05.2009 03:00 21,4 C 10,4 C 51 % 77 % 1025,4 hPa 0,0 l/m 0,0 km/h (0 Bft)
03.05.2009 04:00 21,2 C 9,6 C 51 % 78 % 1025,4 hPa 0,0 l/m 0,0 km/h (0 Bft)
03.05.2009 05:00 21,1 C 9,8 C 51 % 79 % 1024,4 hPa 0,0 l/m 0,0 km/h (0 Bft)
03.05.2009 06:00 21,0 C 10,0 C 51 % 80 % 1024,4 hPa 0,0 l/m 0,0 km/h (0 Bft)
03.05.2009 07:00 21,0 C 10,6 C 51 % 81 % 1024,4 hPa 0,0 l/m 0,0 km/h (0 Bft)
03.05.2009 08:00 20,9 C 11,5 C 51 % 80 % 1024,3 hPa 0,0 l/m 0,0 km/h (0 Bft)
03.05.2009 09:00 21,0 C 12,8 C 51 % 77 % 1023,4 hPa 0,0 l/m 0,0 km/h (0 Bft)
03.05.2009 10:00 20,7 C 14,3 C 49 % 72 % 1023,4 hPa 0,0 l/m 0,0 km/h (0 Bft)
03.05.2009 11:00 21,0 C 15,2 C 50 % 68 % 1023,4 hPa 0,0 l/m 1,1 km/h (1 Bft)
03.05.2009 12:00 21,4 C 16,0 C 49 % 65 % 1022,7 hPa 0,0 l/m 1,1 km/h (1 Bft)
03.05.2009 13:00 21,4 C 15,4 C 49 % 62 % 1022,3 hPa 0,0 l/m 0,9 km/h (0 Bft)
03.05.2009 14:00 21,4 C 14,4 C 49 % 62 % 1022,7 hPa 0,0 l/m 1,9 km/h (1 Bft)
03.05.2009 15:00 21,5 C 14,1 C 48 % 63 % 1022,9 hPa 0,0 l/m 1,7 km/h (1 Bft)
03.05.2009 16:00 21,5 C 14,6 C 47 % 63 % 1022,6 hPa 0,0 l/m 2,5 km/h (1 Bft)
03.05.2009 17:00 21,4 C 14,9 C 46 % 61 % 1022,4 hPa 0,0 l/m 1,9 km/h (1 Bft)
03.05.2009 18:00 21,3 C 14,8 C 44 % 54 % 1022,4 hPa 0,0 l/m 3,6 km/h (1 Bft)
03.05.2009 19:00 21,2 C 14,0 C 44 % 54 % 1023,0 hPa 0,0 l/m 1,5 km/h (1 Bft)
03.05.2009 20:00 21,1 C 12,7 C 44 % 58 % 1023,8 hPa 0,0 l/m 2,6 km/h (1 Bft)
03.05.2009 21:00 21,0 C 11,1 C 44 % 61 % 1024,4 hPa 0,0 l/m 0,6 km/h (0 Bft)
03.05.2009 22:00 20,8 C 9,9 C 44 % 63 % 1024,4 hPa 0,0 l/m 0,0 km/h (0 Bft)
03.05.2009 23:00 20,6 C 9,1 C 43 % 64 % 1024,5 hPa 0,0 l/m 0,2 km/h (0 Bft)
Min-Datum _ 29.04.09 30.04.09 27.04.09 30.04.09 28.04.09 - 27.04.09
_ Min-Zeit 08:06 04:30 15:22 15:48 00:34 - 00:00
Minimum _ 18,9 C 5,6 C 43 % 41 % 1000,3 hPa - 0,0 km/h (0 Bft)
Max-Datum _ 02.05.09 01.05.09 01.05.09 27.04.09 02.05.09 27.04.09 30.04.09
_ Max-Zeit 22:42 15:52 10:40 05:38 10:04 00:00 16:56
Maximum _ 22,2 C 24,4 C 54 % 86 % 1028,4 hPa 2,6 l/m 48,4 km/h
W (6 Bft)
Durchschnitt _ 20,6 C 13,2 C 49 % 68 % 1014,7 hPa #4,1 l/m 0,8 km/h (0 Bft)
© 2012 W. Hausmann